Tracking 29892 objects as of 21-Nov-2024
HD Live streaming from Space Station
objects crossing your sky now

STARLINK-31212

Track STARLINK-31212 now!
10-day predictions
STARLINK-31212 is classified as:


NORAD ID: 58875
Int'l Code: 2024-019Y
Perigee: 494.3 km
Apogee: 495.8 km
Inclination: 43.0 °
Period: 94.4 minutes
Semi major axis: 6866 km
RCS: Unknown
Launch date: January 29, 2024
Source: United States (US)
Launch site: AIR FORCE EASTERN TEST RANGE (AFETR)
Your satellite tracking list
Your tracking list is empty




NASA's NSSDC Master Catalog

Two Line Element Set (TLE):
1 58875U 24019Y   24325.61887330  .00040424  00000-0  15445-2 0  9996
2 58875  42.9999  43.2918 0001056 275.9151  84.1579 15.25957975 46599
Source of the keplerian elements: AFSPC